Location: Carrières
(48.9495°N, 2.0407°E)
Time: 21:12:59
(UTC+00:00)

Transit 2A - Pass Details

Date: 19 April 2024
Orbit: 594 x 957 km, 66.7° (Epoch: 18 May)

Event Time Altitude Azimuth Distance (km) Brightness Sun altitude
Rises 07:05:12 0° 220° (SW) 2,845 8.6 20.7°
Reaches altitude 10° 07:07:23 10° 223° (SW) 1,968 7.9 21.1°
Maximum altitude 07:11:46 72° 308° (NW) 680 5.9 21.8°
Drops below altitude 10° 07:16:34 10° 33° (NNE) 2,140 8.7 22.6°
Sets 07:19:02 0° 35° (NE) 3,118 9.5 23.0°
